When you browse on this site, cookies collect data to enhance your experience and personalize the content and advertising you see.
Visit our Privacy Policy to learn more. By continuing to use the site, you agree to this use of cookies and data.
  • Em Portugal
  • Lista de países
  • Para 7 dias
  • Temperatura da água
  • Mapas de satélite
  • Mapa do tempo
  • Widgets de tempo
  • user-avatar
    Iniciar Sessão

    Previsão horária em Hirocastra

    Hoje, 20 Março, Quarta-feira

    Tempo Temperatura Precipitação Vento Pressão Humidade
    00:00 +6°C° 0 mm 1 m/s 651 mmHg 88%
    01:00 +5°C° 0 mm 1 m/s 651 mmHg 87%
    02:00 +5°C° 0 mm 1 m/s 651 mmHg 85%
    03:00 +5°C° 0 mm 1 m/s 651 mmHg 83%
    04:00 +5°C° 0 mm 1 m/s 651 mmHg 81%
    05:00 +5°C° 0 mm 1 m/s 651 mmHg 79%
    06:00 +5°C° 0 mm 2 m/s 652 mmHg 77%
    07:00 +5°C° 0 mm 2 m/s 652 mmHg 75%
    08:00 +8°C° 0 mm 1 m/s 653 mmHg 67%
    09:00 +11°C° 0 mm 1 m/s 654 mmHg 60%
    10:00 +13°C° 0 mm 1 m/s 654 mmHg 52%
    11:00 +13°C° 0 mm 1 m/s 655 mmHg 49%
    12:00 +14°C° 0 mm 1 m/s 655 mmHg 47%
    13:00 +15°C° 0 mm 2 m/s 655 mmHg 44%
    14:00 +14°C° 0.3 mm 2 m/s 655 mmHg 49%
    15:00 +14°C° 0.3 mm 2 m/s 655 mmHg 55%
    16:00 +13°C° 0.3 mm 2 m/s 654 mmHg 60%
    17:00 +12°C° 0.4 mm 2 m/s 654 mmHg 63%
    18:00 +10°C° 0.4 mm 1 m/s 654 mmHg 67%
    19:00 +9°C° 0.4 mm 1 m/s 654 mmHg 70%
    20:00 +8°C° 0.1 mm 2 m/s 654 mmHg 71%
    21:00 +7°C° 0.1 mm 2 m/s 654 mmHg 72%
    22:00 +7°C° 0.1 mm 2 m/s 655 mmHg 73%
    23:00 +6°C° 0 mm 2 m/s 655 mmHg 74%

    Amanhã, 21 Março, Quinta-feira

    Tempo Temperatura Precipitação Vento Pressão Humidade
    00:00 +6°C° 0 mm 2 m/s 655 mmHg 76%
    01:00 +5°C° 0 mm 2 m/s 655 mmHg 78%
    02:00 +5°C° 0 mm 2 m/s 655 mmHg 78%
    03:00 +5°C° 0 mm 2 m/s 654 mmHg 79%
    04:00 +4°C° 0 mm 2 m/s 654 mmHg 80%
    05:00 +3°C° 0 mm 3 m/s 655 mmHg 79%
    06:00 +4°C° 0 mm 3 m/s 655 mmHg 77%
    07:00 +4°C° 0 mm 3 m/s 655 mmHg 76%
    08:00 +7°C° 0 mm 3 m/s 656 mmHg 69%
    09:00 +9°C° 0 mm 3 m/s 656 mmHg 62%
    10:00 +10°C° 0 mm 3 m/s 657 mmHg 55%
    11:00 +12°C° 0 mm 2 m/s 657 mmHg 53%
    12:00 +13°C° 0 mm 2 m/s 657 mmHg 50%
    13:00 +13°C° 0 mm 2 m/s 657 mmHg 48%
    14:00 +13°C° 0 mm 2 m/s 657 mmHg 49%
    15:00 +13°C° 0 mm 2 m/s 657 mmHg 49%
    16:00 +12°C° 0 mm 2 m/s 656 mmHg 50%
    17:00 +10°C° 0 mm 2 m/s 656 mmHg 55%
    18:00 +8°C° 0 mm 2 m/s 656 mmHg 60%
    19:00 +7°C° 0 mm 2 m/s 656 mmHg 65%
    20:00 +6°C° 0 mm 2 m/s 656 mmHg 68%
    21:00 +5°C° 0 mm 2 m/s 656 mmHg 70%
    22:00 +4°C° 0 mm 3 m/s 656 mmHg 73%
    23:00 +4°C° 0 mm 2 m/s 656 mmHg 74%

    Depois de amanhã, 22 Março, Sexta-feira

    Tempo Temperatura Precipitação Vento Pressão Humidade
    00:00 +4°C° 0 mm 2 m/s 656 mmHg 76%
    01:00 +3°C° 0 mm 2 m/s 656 mmHg 77%
    02:00 +3°C° 0 mm 2 m/s 656 mmHg 78%
    03:00 +3°C° 0 mm 2 m/s 656 mmHg 79%
    04:00 +3°C° 0 mm 2 m/s 656 mmHg 80%
    05:00 +2°C° 0 mm 3 m/s 656 mmHg 79%
    06:00 +2°C° 0 mm 3 m/s 656 mmHg 78%
    07:00 +3°C° 0 mm 3 m/s 656 mmHg 77%
    08:00 +6°C° 0 mm 2 m/s 657 mmHg 69%
    09:00 +8°C° 0 mm 2 m/s 657 mmHg 61%
    10:00 +10°C° 0 mm 2 m/s 658 mmHg 54%
    11:00 +10°C° 0 mm 2 m/s 658 mmHg 51%
    12:00 +12°C° 0 mm 2 m/s 658 mmHg 49%
    13:00 +13°C° 0 mm 1 m/s 658 mmHg 46%
    14:00 +12°C° 0 mm 2 m/s 658 mmHg 47%
    15:00 +12°C° 0 mm 2 m/s 657 mmHg 49%
    16:00 +12°C° 0 mm 2 m/s 657 mmHg 50%
    17:00 +9°C° 0 mm 2 m/s 657 mmHg 55%
    18:00 +8°C° 0 mm 2 m/s 656 mmHg 60%
    19:00 +7°C° 0 mm 1 m/s 656 mmHg 65%
    20:00 +6°C° 0 mm 2 m/s 656 mmHg 66%
    21:00 +5°C° 0 mm 2 m/s 656 mmHg 67%
    22:00 +4°C° 0 mm 2 m/s 656 mmHg 67%
    23:00 +4°C° 0 mm 2 m/s 656 mmHg 69%

    23 Março, Sábado

    Tempo Temperatura Precipitação Vento Pressão Humidade
    00:00 +3°C° 0 mm 2 m/s 655 mmHg 70%
    01:00 +3°C° 0 mm 2 m/s 655 mmHg 72%
    02:00 +3°C° 0 mm 2 m/s 655 mmHg 72%
    03:00 +3°C° 0 mm 2 m/s 655 mmHg 73%
    04:00 +2°C° 0 mm 2 m/s 655 mmHg 74%
    05:00 +3°C° 0 mm 2 m/s 655 mmHg 73%
    06:00 +3°C° 0 mm 2 m/s 655 mmHg 73%
    07:00 +4°C° 0 mm 2 m/s 655 mmHg 72%
    08:00 +6°C° 0 mm 2 m/s 656 mmHg 65%
    09:00 +8°C° 0 mm 2 m/s 656 mmHg 57%
    10:00 +11°C° 0 mm 1 m/s 657 mmHg 49%
    11:00 +12°C° 0 mm 1 m/s 657 mmHg 47%
    12:00 +13°C° 0 mm 1 m/s 657 mmHg 45%
    13:00 +14°C° 0 mm 1 m/s 657 mmHg 43%
    14:00 +13°C° 0 mm 2 m/s 656 mmHg 45%
    15:00 +13°C° 0 mm 2 m/s 656 mmHg 47%
    16:00 +13°C° 0 mm 2 m/s 656 mmHg 49%
    17:00 +10°C° 0 mm 2 m/s 655 mmHg 55%
    18:00 +9°C° 0 mm 1 m/s 655 mmHg 62%
    19:00 +8°C° 0 mm 1 m/s 655 mmHg 68%
    20:00 +7°C° 0 mm 1 m/s 655 mmHg 69%
    21:00 +7°C° 0 mm 1 m/s 655 mmHg 69%
    22:00 +7°C° 0 mm 1 m/s 655 mmHg 69%
    23:00 +6°C° 0 mm 1 m/s 655 mmHg 69%

    24 Março, Domingo

    Tempo Temperatura Precipitação Vento Pressão Humidade
    00:00 +6°C° 0 mm 1 m/s 654 mmHg 69%
    01:00 +5°C° 0 mm 1 m/s 654 mmHg 69%
    02:00 +5°C° 0 mm 1 m/s 654 mmHg 68%
    03:00 +4°C° 0 mm 2 m/s 654 mmHg 67%
    04:00 +4°C° 0 mm 2 m/s 653 mmHg 66%
    05:00 +4°C° 0 mm 2 m/s 654 mmHg 65%
    06:00 +5°C° 0 mm 2 m/s 654 mmHg 65%
    07:00 +5°C° 0 mm 2 m/s 654 mmHg 64%
    08:00 +8°C° 0 mm 1 m/s 655 mmHg 57%
    09:00 +10°C° 0 mm 1 m/s 655 mmHg 51%
    10:00 +12°C° 0 mm 0 m/s 656 mmHg 45%
    11:00 +13°C° 0 mm 1 m/s 656 mmHg 44%
    12:00 +14°C° 0 mm 2 m/s 655 mmHg 44%
    13:00 +14°C° 0 mm 2 m/s 655 mmHg 44%
    14:00 +14°C° 0 mm 2 m/s 655 mmHg 48%
    15:00 +12°C° 0 mm 3 m/s 654 mmHg 53%
    16:00 +12°C° 0 mm 3 m/s 654 mmHg 57%
    17:00 +10°C° 0 mm 3 m/s 653 mmHg 65%
    18:00 +9°C° 0 mm 2 m/s 653 mmHg 73%
    19:00 +7°C° 0 mm 2 m/s 653 mmHg 81%
    20:00 +7°C° 0 mm 2 m/s 653 mmHg 80%
    21:00 +8°C° 0 mm 1 m/s 652 mmHg 78%
    22:00 +7°C° 0 mm 1 m/s 652 mmHg 77%
    23:00 +7°C° 0 mm 1 m/s 652 mmHg 76%

    25 Março, Segunda-feira

    Tempo Temperatura Precipitação Vento Pressão Humidade
    00:00 +7°C° 0 mm 1 m/s 652 mmHg 74%
    01:00 +7°C° 0 mm 1 m/s 652 mmHg 73%
    02:00 +6°C° 0 mm 1 m/s 651 mmHg 72%
    03:00 +6°C° 0 mm 1 m/s 651 mmHg 71%
    04:00 +6°C° 0 mm 1 m/s 651 mmHg 70%
    05:00 +6°C° 0 mm 1 m/s 651 mmHg 69%
    06:00 +7°C° 0 mm 1 m/s 651 mmHg 68%
    07:00 +8°C° 0 mm 1 m/s 652 mmHg 66%
    08:00 +9°C° 0 mm 1 m/s 652 mmHg 61%
    09:00 +11°C° 0 mm 1 m/s 652 mmHg 56%
    10:00 +12°C° 0 mm 1 m/s 653 mmHg 51%
    11:00 +13°C° 0 mm 2 m/s 653 mmHg 51%
    12:00 +13°C° 0 mm 2 m/s 652 mmHg 51%
    13:00 +13°C° 0 mm 3 m/s 652 mmHg 52%
    14:00 +12°C° 0.2 mm 3 m/s 652 mmHg 56%
    15:00 +12°C° 0.2 mm 3 m/s 651 mmHg 59%
    16:00 +11°C° 0.2 mm 3 m/s 651 mmHg 63%
    17:00 +10°C° 0.1 mm 3 m/s 650 mmHg 71%
    18:00 +8°C° 0.1 mm 2 m/s 650 mmHg 79%
    19:00 +7°C° 0.1 mm 2 m/s 649 mmHg 87%
    20:00 +7°C° 0 mm 1 m/s 649 mmHg 88%
    21:00 +6°C° 0 mm 1 m/s 649 mmHg 90%
    22:00 +6°C° 0 mm 1 m/s 649 mmHg 91%
    23:00 +6°C° 0 mm 1 m/s 649 mmHg 91%
    Mostrar mais